Weather History for New Bedford, MA

Change the Weather History Date:

Tuesday, February 19, 2013

  Actual Average Record
Temperature  
Mean Temperature 34 °F -  
Max Temperature 46 °F 40 °F 61 °F (1997)
Min Temperature 21 °F 27 °F 8 °F (1958)
Degree Days  
Heating Degree Days 32    
Moisture  
Dew Point 33 °F    
Average Humidity 79    
Maximum Humidity 97    
Minimum Humidity 43    
Precipitation  
Precipitation 0.73 in - - ()
Sea Level Pressure  
Sea Level Pressure 29.87 in    
Wind  
Wind Speed 7 mph (SSW)    
Max Wind Speed 15 mph    
Max Gust Speed 23 mph    
Visibility 7 miles    
Events Rain    
Averages and records for this station are not official NWS values.
T = Trace of Precipitation, MM = Missing Value Source: NWS Daily Summary

Daily Weather History Graph

Daily Weather History Graph

Search for Another Location

Airport:

Trip Planner

Search our weather history database for the weather conditions in past years. The results will help you decide how hot, cold, wet, or windy it might be!

Date:

Astronomy

Feb. 19, 2013 Rise Set
Actual Time 6:33 AM EST 5:22 PM EST
Civil Twilight 6:05 AM EST 5:50 PM EST
Nautical Twilight 5:32 AM EST 6:23 PM EST
Astronomical Twilight 5:00 AM EST 6:55 PM EST
Moon 11:49 AM EST (2/19) 2:05 AM EST (2/19)
Length of Visible Light 11h 45m
Length of Day
10h 49m
Waxing Gibbous, 67% of the Moon is Illuminated
Feb 19
Waxing Gibbous
Feb 25
Full
Mar 4
Last Quarter
Mar 11
New
Mar 19
First Quarter

Hourly Weather History & Observations

Time (EST) Temp. Windchill Dew Point Humidity Pressure Visibility Wind Dir Wind Speed Gust Speed Precip Events Conditions
12:53 AM 26.1 °F 18.4 °F 6.1 °F 43% 30.17 in 10.0 mi West 6.9 mph - N/A   Clear
1:53 AM 28.0 °F 19.3 °F 8.1 °F 43% 30.18 in 10.0 mi WSW 9.2 mph - N/A   Clear
2:53 AM 28.9 °F 23.9 °F 10.9 °F 47% 30.17 in 10.0 mi WSW 4.6 mph - N/A   Clear
3:53 AM 28.0 °F 24.2 °F 14.0 °F 56% 30.15 in 10.0 mi WSW 3.5 mph - N/A   Clear
4:53 AM 21.9 °F 17.2 °F 12.9 °F 68% 30.16 in 10.0 mi SW 3.5 mph - N/A   Partly Cloudy
5:53 AM 21.9 °F - 14.0 °F 72% 30.16 in 10.0 mi Calm Calm - N/A   Clear
6:53 AM 21.9 °F - 14.0 °F 72% 30.14 in 10.0 mi Calm Calm - N/A   Clear
7:53 AM 24.1 °F - 17.1 °F 75% 30.12 in 10.0 mi Calm Calm - N/A   Clear
8:53 AM 35.1 °F 30.1 °F 25.0 °F 67% 30.11 in 10.0 mi SSW 5.8 mph - N/A   Clear
9:53 AM 42.1 °F 35.7 °F 30.0 °F 62% 30.10 in 10.0 mi SW 11.5 mph - N/A   Clear
10:53 AM 45.0 °F 38.2 °F 33.1 °F 63% 30.09 in 10.0 mi SSW 15.0 mph 23.0 mph N/A   Clear
11:53 AM 46.4 °F 40.4 °F 33.8 °F 62% 30.04 in 10.0 mi SSW 13.8 mph 23.0 mph N/A   Clear
1:53 PM 46.4 °F 40.7 °F 35.6 °F 66% 29.97 in 10.0 mi South 12.7 mph - N/A   Scattered Clouds
2:53 PM 46.0 °F 41.9 °F 36.0 °F 68% 29.94 in 10.0 mi SSE 8.1 mph - N/A   Partly Cloudy
3:53 PM 43.0 °F 37.7 °F 37.0 °F 80% 29.90 in 10.0 mi SSE 9.2 mph - N/A   Mostly Cloudy
4:53 PM 45.0 °F 38.9 °F 39.9 °F 82% 29.87 in 5.0 mi South 12.7 mph - 0.00 in Rain Light Rain
5:48 PM 44.6 °F 40.2 °F 41.0 °F 87% 29.81 in 9.0 mi SSE 8.1 mph - 0.02 in Rain Light Rain
5:53 PM 43.0 °F 37.2 °F 41.0 °F 93% 29.81 in 9.0 mi SSE 10.4 mph - 0.02 in   Overcast
6:33 PM 41.0 °F 36.4 °F 39.2 °F 93% 29.77 in 5.0 mi SE 6.9 mph - 0.00 in Rain Light Rain
7:41 PM 44.6 °F 40.2 °F 42.8 °F 93% 29.73 in 2.0 mi South 8.1 mph - 0.15 in Rain Heavy Rain
7:50 PM 46.4 °F 40.7 °F 42.8 °F 87% 29.74 in 2.0 mi WSW 12.7 mph - 0.20 in Rain Heavy Rain
7:53 PM 46.0 °F 41.0 °F 43.0 °F 89% 29.74 in 1.5 mi SW 10.4 mph - 0.26 in Rain Heavy Rain
8:10 PM 46.4 °F 41.9 °F 42.8 °F 87% 29.72 in 1.8 mi SW 9.2 mph - 0.17 in Rain Heavy Rain
8:17 PM 46.4 °F 41.9 °F 42.8 °F 87% 29.71 in 3.0 mi South 9.2 mph - 0.19 in Rain Rain
8:53 PM 45.0 °F 39.3 °F 43.0 °F 93% 29.65 in 6.0 mi SSE 11.5 mph - 0.23 in Rain Light Rain
9:06 PM 44.6 °F 38.1 °F 42.8 °F 93% 29.64 in 2.5 mi SSE 13.8 mph 19.6 mph 0.03 in Rain Rain
9:18 PM 44.6 °F 39.7 °F 42.8 °F 93% 29.63 in 2.5 mi South 9.2 mph - 0.07 in Rain Rain
9:34 PM 46.4 °F 41.1 °F 44.6 °F 93% 29.63 in 2.5 mi SSW 11.5 mph - 0.15 in Rain Rain
9:40 PM 46.4 °F 41.5 °F 44.6 °F 93% 29.64 in 3.0 mi SW 10.4 mph 18.4 mph 0.18 in Rain Rain
9:47 PM 46.4 °F 41.5 °F 44.6 °F 93% 29.64 in 4.0 mi SW 10.4 mph - 0.19 in Rain Light Rain
9:53 PM 46.0 °F 41.4 °F 44.1 °F 93% 29.64 in 6.0 mi SW 9.2 mph - 0.19 in Rain Light Rain
10:24 PM 46.4 °F 44.3 °F 44.6 °F 93% 29.61 in 8.0 mi WSW 4.6 mph - 0.03 in Rain Light Rain
10:53 PM 43.0 °F 41.3 °F 42.1 °F 97% 29.61 in 6.0 mi South 3.5 mph - 0.03 in Rain Light Rain
11:53 PM 44.1 °F 41.5 °F 42.1 °F 93% 29.59 in 10.0 mi WSW 4.6 mph - 0.00 in Rain Light Rain